Tracking 22836 objects as of 18-Apr-2021
HD Live streaming from Space Station
objects crossing your sky now

STARLINK-1506

Track STARLINK-1506 now!
10-day predictions
STARLINK-1506 is classified as:


NORAD ID: 45747
Int'l Code: 2020-038T
Perigee: 552.9 km
Apogee: 555.8 km
Inclination: 53.1 °
Period: 95.6 minutes
Semi major axis: 6925 km
RCS: Unknown
Launch date: June 13, 2020
Source: United States (US)
Launch site: AIR FORCE EASTERN TEST RANGE (AFETR)
aabbcc
Your satellite tracking list
Your tracking list is empty




NASA's NSSDC Master Catalog

Two Line Element Set (TLE):
1 45747U 20038T   21108.09607603 -.00000126  00000-0  10463-4 0  9991
2 45747  53.0587 336.9382 0002065  81.6425 278.4799 15.06399672 47836
Source of the keplerian elements: AFSPC